QPF
0.00 0.00 0.00 0.00 0.00 0.00 0.00 0.00 0.00 0.00 0.00 0.00 0.00 0.00 0.00 0.00 0.00 0.00 0.00 0.00 0.00 0.00 0.00 0.00 0.00 0.00 0.00 0.00 0.00 0.00 0.00 0.00 0.00 0.00 0.01 0.00 0.00 0.00 0.00 0.00 0.00 0.00
0.00 0.00 0.00 0.00 0.00 0.00 0.00 0.00 0.00 0.00 0.00 0.00 0.00 0.00 0.00 0.00 0.00 0.00 0.00 0.00 0.00 0.00 0.00 0.00 0.00 0.00 0.00 0.00 0.00 0.00 0.00 0.00 0.00 0.00 0.00 0.00 0.00 0.00 0.00 0.00 0.00 0.00
0.00 0.00 0.00 0.00 0.00 0.00 0.00 0.00 0.00 0.00 0.00 0.00 0.00 0.00 0.00 0.00 0.00 0.00 0.00 0.00 0.00 0.00 0.00 0.00 0.00 0.00 0.00 0.00 0.00 0.00 0.00 0.00 0.00 0.00 0.00 0.00 0.00 0.00 0.00 0.00 0.00 0.00
0.00 0.00 0.00 0.00 0.00 0.00 0.00 0.00 0.00 0.00 0.00 0.00 0.00 0.00 0.00 0.00 0.00 0.00 0.00 0.00 0.00 0.00 0.00 0.00 0.00 0.00 0.00 0.00 0.00 0.00 0.00 0.00 0.00 0.00 0.00 0.00 0.00 0.00 0.00 0.00 0.00 0.00
0.00 0.00 0.00 0.00 0.00 0.00 0.00 0.00 0.00 0.00 0.00 0.00 0.00 0.00 0.00 0.00 0.00 0.00 0.00 0.00 0.00 0.00 0.00 0.00 0.00 0.00 0.00 0.00 0.00 0.00 0.00 0.00 0.00 0.00 0.00 0.00 0.00 0.00 0.00 0.00 0.00 0.01
0.00 0.00 0.00 0.00 0.00 0.00 0.00 0.00 0.00 0.00 0.00 0.00 0.00 0.00 0.00 0.00 0.00 0.00 0.00 0.00 0.00 0.00 0.00 0.00 0.00 0.00 0.00 0.00 0.00 0.00 0.00 0.00 0.00 0.00 0.00 0.00 0.00 0.00 0.00 0.00 0.00 0.00
0.00 0.00 0.00 0.00 0.00 0.00 0.00 0.00 0.00 0.00 0.00 0.00 0.00 0.00 0.00 0.00 0.00 0.00 0.00 0.00 0.00 0.00 0.00 0.00 0.00 0.00 0.00 0.00 0.00 0.00 0.00 0.00 0.00 0.00 0.00 0.00 0.00 0.00 0.00 0.00 0.00 0.00
0.00 0.00 0.00 0.00 0.00 0.00 0.00 0.00 0.00 0.00 0.00 0.00 0.00 0.00 0.00 0.00 0.00 0.00 0.00 0.00 0.00 0.00 0.00 0.00 0.00 0.00 0.00 0.00 0.00 0.00 0.00 0.00 0.00 0.00 0.00 0.00 0.00 0.00 0.00 0.00 0.00 0.00
0.02 0.00 0.00 0.00 0.00 0.00 0.00 0.00 0.00 0.00 0.00 0.00 0.00 0.00 0.00 0.00 0.00 0.00 0.00 0.00 0.00 0.00 0.00 0.00 0.00 0.00 0.00 0.00 0.00 0.00 0.00 0.00 0.00 0.00 0.00 0.00 0.00 0.00 0.00 0.00 0.00 0.00
0.03 0.00 0.00 0.01 0.00 0.00 0.00 0.00 0.00 0.00 0.00 0.00 0.00 0.00 0.00 0.00 0.00 0.00 0.00 0.00 0.00 0.00 0.00 0.00 0.00 0.00 0.00 0.00 0.00 0.00 0.00 0.00 0.00 0.00 0.00 0.00 0.00 0.00 0.01 0.00 0.01 0.00
0.00 0.02 0.00 0.00 0.00 0.00 0.00 0.00 0.00 0.00 0.00 0.00 0.01 0.00 0.01 0.00 0.00 0.00 0.00 0.00 0.00 0.00 0.00 0.00 0.00 0.00 0.00 0.00 0.00 0.00 0.00 0.00 0.00 0.00 0.00 0.00 0.00 0.00 0.00 0.00 0.00 0.00
0.00 0.00 0.00 0.00 0.01 0.01 0.00 0.00 0.05 0.01 0.01 0.00 0.00 0.00 0.00 0.00 0.00 0.00 0.00 0.00 0.00 0.00 0.00 0.00 0.00 0.00 0.00 0.00 0.00 0.00 0.00 0.00 0.00 0.00 0.00 0.00 0.00 0.00 0.00 0.00 0.00 0.00
0.00 0.00 0.00 0.01 0.01 0.01 0.01 0.00 0.02 0.00 0.00 0.00 0.00 0.00 0.00 0.00 0.00 0.00 0.00 0.00 0.00 0.00 0.00 0.00 0.00 0.00 0.00 0.00 0.00 0.00 0.00 0.00 0.00 0.00 0.00 0.00 0.00 0.00 0.00 0.00 0.00 0.00
0.00 0.00 0.04 0.07 0.02 0.00 0.00 0.00 0.00 0.00 0.00 0.00 0.00 0.00 0.00 0.00 0.00 0.00 0.00 0.00 0.00 0.00 0.00 0.00 0.00 0.00 0.00 0.00 0.00 0.00 0.00 0.00 0.00 0.00 0.00 0.00 0.00 0.00 0.00 0.00 0.00 0.00
0.00 0.01 0.21 0.32 0.02 0.00 0.01 0.00 0.00 0.01 0.01 0.01 0.00 0.00 0.00 0.00 0.00 0.00 0.00 0.00 0.00 0.00 0.00 0.00 0.00 0.00 0.00 0.00 0.00 0.00 0.00 0.00 0.00 0.00 0.00 0.00 0.00 0.00 0.00 0.00 0.00 0.00
0.00 0.00 0.13 0.21 0.04 0.07 0.01 0.00 0.00 0.00 0.00 0.00 0.00 0.00 0.00 0.00 0.00 0.00 0.00 0.00 0.00 0.00 0.00 0.00 0.00 0.00 0.00 0.00 0.00 0.00 0.00 0.00 0.00 0.00 0.00 0.00 0.00 0.00 0.00 0.00 0.00 0.00
0.00 0.00 0.00 0.06 0.00 0.00 0.00 0.00 0.00 0.00 0.00 0.00 0.00 0.00 0.00 0.00 0.00 0.00 0.00 0.00 0.00 0.00 0.00 0.00 0.00 0.00 0.00 0.00 0.00 0.00 0.00 0.00 0.00 0.00 0.00 0.00 0.00 0.00 0.00 0.00 0.00 0.00
0.00 0.00 0.00 0.00 0.01 0.00 0.00 0.00 0.00 0.00 0.00 0.00 0.00 0.00 0.00 0.00 0.00 0.00 0.00 0.00 0.00 0.00 0.00 0.00 0.00 0.00 0.00 0.00 0.00 0.00 0.00 0.00 0.00 0.00 0.00 0.00 0.00 0.00 0.00 0.00 0.00 0.00
0.00 0.00 0.00 0.00 0.00 0.00 0.00 0.00 0.00 0.00 0.00 0.00 0.00 0.00 0.00 0.01 0.00 0.01 0.00 0.00 0.00 0.00 0.00 0.00 0.00 0.00 0.00 0.00 0.00 0.00 0.00 0.00 0.00 0.00 0.00 0.00 0.00 0.00 0.00 0.00 0.00 0.00
0.00 0.00 0.00 0.00 0.00 0.00 0.00 0.00 0.00 0.00 0.00 0.00 0.00 0.00 0.00 0.01 0.00 0.00 0.00 0.00 0.00 0.00 0.00 0.00 0.00 0.00 0.00 0.00 0.00 0.00 0.00 0.00 0.00 0.00 0.00 0.00 0.00 0.00 0.00 0.00 0.00 0.00
0.00 0.00 0.00 0.00 0.00 0.00 0.00 0.00 0.00 0.00 0.00 0.00 0.00 0.01 0.00 0.00 0.00 0.00 0.02 0.00 0.00 0.00 0.00 0.00 0.00 0.00 0.00 0.00 0.00 0.00 0.00 0.00 0.00 0.00 0.00 0.00 0.00 0.00 0.00 0.00 0.00 0.00
0.00 0.00 0.00 0.00 0.00 0.00 0.00 0.00 0.00 0.00 0.00 0.00 0.02 0.01 0.01 0.00 0.00 0.01 0.01 0.00 0.00 0.00 0.00 0.00 0.00 0.00 0.00 0.00 0.00 0.00 0.00 0.00 0.00 0.00 0.00 0.00 0.00 0.00 0.00 0.00 0.00 0.00
0.00 0.00 0.00 0.00 0.00 0.00 0.00 0.00 0.00 0.00 0.00 0.00 0.00 0.00 0.01 0.01 0.01 0.00 0.00 0.00 0.00 0.00 0.00 0.00 0.00 0.00 0.00 0.00 0.00 0.00 0.00 0.00 0.00 0.00 0.00 0.00 0.00 0.00 0.03 0.01 0.00 0.01
0.00 0.00 0.00 0.00 0.00 0.00 0.00 0.00 0.00 0.00 0.00 0.00 0.02 0.02 0.00 0.02 0.04 0.02 0.02 0.00 0.00 0.01 0.00 0.00 0.00 0.00 0.00 0.00 0.00 0.00 0.00 0.00 0.00 0.00 0.00 0.00 0.00 0.00 0.00 0.01 0.03 0.00
0.00 0.00 0.00 0.00 0.00 0.00 0.00 0.00 0.00 0.00 0.00 0.00 0.01 0.01 0.00 0.01 0.00 0.00 0.00 0.00 0.00 0.00 0.00 0.00 0.00 0.00 0.00 0.00 0.00 0.00 0.00 0.00 0.00 0.00 0.00 0.00 0.01 0.01 0.01 0.00 0.00 0.00
0.00 0.00 0.00 0.00 0.00 0.00 0.00 0.00 0.00 0.00 0.00 0.00 0.00 0.00 0.00 0.00 0.02 0.00 0.00 0.00 0.00 0.01 0.00 0.00 0.00 0.01 0.00 0.00 0.00 0.00 0.00 0.00 0.00 0.00 0.00 0.00 0.01 0.02 0.02 0.01 0.01 0.00
MSLP
1012.94 1013.18 1013.58 1013.86 1014.14 1014.34 1014.66 1015.06 1015.18 1015.46 1015.66 1015.74 1016.10 1016.22 1016.38 1016.46 1016.50 1016.74 1016.94 1017.06 1017.26 1017.38 1017.46 1017.54 1017.62 1017.78 1017.86 1018.02 1018.10 1018.22 1018.34 1018.42 1018.42 1018.42 1018.66 1018.78 1018.90 1018.98 1019.10 1019.14 1019.22 1019.26
1012.66 1012.86 1013.14 1013.42 1013.86 1014.02 1014.26 1014.50 1014.90 1015.18 1015.50 1015.66 1015.74 1015.90 1016.10 1016.30 1016.50 1016.62 1016.90 1017.06 1017.18 1017.34 1017.34 1017.46 1017.58 1017.70 1017.82 1017.82 1017.98 1018.18 1018.26 1018.30 1018.46 1018.14 1018.54 1018.70 1018.70 1018.74 1018.90 1018.90 1018.98 1018.94
1012.30 1012.66 1012.98 1013.42 1013.66 1013.94 1014.06 1014.18 1014.46 1014.82 1015.10 1015.34 1015.46 1015.74 1016.02 1016.10 1016.38 1016.54 1016.70 1016.90 1017.10 1017.18 1017.30 1017.38 1017.50 1017.58 1017.66 1017.66 1017.78 1017.94 1018.10 1018.22 1018.34 1018.06 1018.26 1018.50 1018.42 1018.58 1018.58 1018.58 1018.66 1018.78
1012.02 1012.26 1012.62 1012.94 1013.14 1013.54 1013.70 1014.06 1014.34 1014.58 1014.74 1015.14 1015.42 1015.50 1015.70 1015.86 1016.14 1016.46 1016.62 1016.78 1016.98 1017.14 1017.10 1017.22 1017.34 1017.38 1017.50 1017.58 1017.70 1017.82 1017.82 1017.98 1017.90 1017.90 1018.10 1018.18 1018.22 1018.22 1018.26 1018.30 1018.42 1018.54
1011.70 1012.06 1012.30 1012.54 1012.78 1013.06 1013.42 1013.90 1014.22 1014.42 1014.66 1014.86 1015.06 1015.26 1015.54 1015.82 1016.10 1016.30 1016.46 1016.66 1016.82 1016.98 1017.06 1017.14 1017.22 1017.30 1017.38 1017.50 1017.62 1017.82 1017.74 1017.86 1017.78 1017.90 1018.10 1018.22 1018.06 1018.10 1018.06 1018.14 1018.38 1018.54
1011.34 1011.66 1011.94 1012.30 1012.58 1012.94 1013.30 1013.62 1013.82 1014.02 1014.22 1014.50 1014.78 1014.82 1015.18 1015.50 1015.82 1015.98 1016.18 1016.38 1016.50 1016.70 1016.82 1016.94 1017.14 1017.18 1017.26 1017.46 1017.62 1017.74 1017.70 1017.70 1017.54 1017.78 1018.06 1018.18 1018.02 1017.78 1017.86 1017.98 1018.22 1018.38
1011.18 1011.46 1011.78 1011.94 1012.34 1012.62 1013.02 1013.22 1013.38 1013.50 1013.74 1013.90 1014.22 1014.58 1014.74 1015.18 1015.50 1015.70 1015.82 1016.06 1016.22 1016.42 1016.66 1016.78 1017.02 1017.14 1017.14 1017.30 1017.58 1017.70 1017.66 1017.62 1017.54 1017.70 1017.98 1017.98 1017.94 1017.94 1017.82 1017.90 1018.10 1018.22
1010.58 1010.74 1011.18 1011.54 1012.02 1012.34 1012.66 1012.78 1012.90 1013.18 1013.34 1013.62 1014.02 1014.18 1014.38 1014.74 1015.10 1015.30 1015.54 1015.70 1015.98 1016.26 1016.50 1016.66 1016.86 1017.06 1017.06 1017.18 1017.46 1017.58 1017.58 1017.38 1017.50 1017.66 1017.82 1017.86 1017.82 1017.94 1017.86 1017.82 1017.90 1018.06
1009.74 1010.34 1010.86 1011.54 1011.86 1011.98 1012.18 1012.34 1012.62 1012.90 1013.02 1013.38 1013.54 1013.74 1013.98 1014.30 1014.66 1014.94 1015.30 1015.50 1015.78 1016.02 1016.30 1016.54 1016.66 1016.82 1016.82 1016.94 1017.14 1017.34 1017.42 1017.30 1017.18 1017.34 1017.50 1017.62 1017.70 1017.70 1017.66 1017.62 1017.74 1017.82
1009.70 1010.22 1010.70 1011.10 1011.50 1011.62 1011.90 1011.98 1012.22 1012.58 1012.86 1013.18 1013.38 1013.46 1013.86 1014.06 1014.22 1014.54 1014.90 1015.30 1015.62 1015.82 1016.06 1016.26 1016.42 1016.54 1016.58 1016.62 1016.86 1017.02 1017.14 1017.18 1017.10 1017.14 1017.18 1017.26 1017.38 1017.42 1017.42 1017.54 1017.62 1017.66
1009.66 1010.14 1010.66 1011.02 1010.98 1010.94 1011.22 1011.58 1012.10 1012.66 1012.94 1013.22 1013.46 1013.54 1013.90 1014.34 1014.34 1014.34 1014.70 1015.06 1015.38 1015.54 1015.78 1015.98 1016.14 1016.26 1016.42 1016.46 1016.50 1016.62 1016.78 1016.82 1016.86 1016.90 1016.98 1017.06 1017.10 1017.14 1017.14 1017.18 1017.22 1017.22
1009.38 1009.82 1010.26 1010.38 1010.34 1010.26 1010.42 1010.70 1011.10 1011.50 1011.90 1012.14 1012.50 1012.98 1012.98 1013.10 1013.66 1014.10 1014.42 1014.82 1014.98 1015.18 1015.38 1015.62 1015.78 1015.98 1016.10 1016.22 1016.26 1016.34 1016.50 1016.54 1016.54 1016.58 1016.58 1016.66 1016.70 1016.70 1016.70 1016.70 1016.78 1016.82
1009.06 1009.46 1009.66 1009.54 1009.38 1009.62 1009.94 1010.30 1010.74 1010.82 1010.94 1011.34 1011.62 1012.14 1012.78 1012.90 1013.02 1013.58 1014.02 1014.42 1014.74 1014.94 1015.14 1015.34 1015.54 1015.70 1015.82 1015.94 1016.06 1016.14 1016.18 1016.30 1016.30 1016.22 1016.26 1016.34 1016.30 1016.22 1016.18 1016.14 1016.18 1016.26
1008.78 1008.82 1008.66 1008.46 1008.82 1009.34 1009.58 1009.82 1010.18 1010.62 1010.78 1011.02 1011.54 1012.10 1012.34 1012.38 1012.54 1013.06 1013.42 1013.82 1014.26 1014.58 1014.78 1014.94 1015.22 1015.42 1015.54 1015.66 1015.78 1015.82 1015.90 1015.94 1016.02 1016.10 1016.06 1016.02 1016.02 1015.94 1015.86 1015.78 1015.74 1015.70
1008.34 1008.22 1008.14 1008.42 1008.66 1008.90 1009.14 1009.38 1009.58 1009.90 1010.30 1010.58 1010.94 1011.34 1011.50 1011.70 1011.94 1012.42 1013.06 1013.50 1013.82 1014.22 1014.54 1014.70 1014.90 1015.06 1015.14 1015.26 1015.50 1015.62 1015.62 1015.74 1015.78 1015.82 1015.86 1015.90 1015.82 1015.70 1015.58 1015.54 1015.42 1015.30
1007.90 1008.02 1008.26 1008.38 1008.66 1008.66 1008.82 1009.06 1009.38 1009.74 1010.02 1010.26 1010.50 1010.78 1011.22 1011.54 1011.90 1012.26 1012.70 1013.06 1013.50 1013.94 1014.30 1014.50 1014.58 1014.58 1014.70 1014.94 1015.06 1015.22 1015.34 1015.42 1015.42 1015.46 1015.54 1015.58 1015.66 1015.66 1015.54 1015.30 1015.18 1015.02
1007.62 1007.86 1008.06 1008.26 1008.22 1008.38 1008.62 1008.86 1009.18 1009.54 1009.86 1010.02 1010.18 1010.54 1011.02 1011.46 1011.90 1012.34 1012.58 1012.74 1013.06 1013.54 1013.98 1014.14 1014.18 1014.18 1014.38 1014.70 1014.98 1015.22 1015.34 1015.30 1015.30 1015.26 1015.26 1015.38 1015.42 1015.54 1015.54 1015.30 1014.98 1014.82
1007.34 1007.58 1007.94 1007.82 1007.98 1008.22 1008.38 1008.62 1008.94 1009.26 1009.58 1009.82 1010.02 1010.38 1010.78 1011.14 1011.74 1012.14 1012.42 1012.58 1012.74 1013.02 1013.42 1013.62 1013.78 1013.82 1014.14 1014.46 1014.74 1014.98 1015.26 1015.22 1014.98 1014.94 1014.98 1014.98 1015.02 1015.06 1015.02 1014.98 1014.94 1014.78
1006.90 1007.10 1007.54 1007.74 1007.70 1007.78 1008.22 1008.58 1008.82 1009.10 1009.42 1009.74 1009.90 1009.90 1010.30 1010.86 1011.18 1011.54 1012.02 1012.30 1012.58 1012.94 1013.18 1013.26 1013.38 1013.42 1013.82 1014.14 1014.42 1014.66 1014.90 1015.10 1014.74 1014.62 1014.66 1014.70 1014.66 1014.66 1014.70 1014.78 1014.74 1014.70
1006.50 1006.78 1007.26 1007.38 1007.34 1007.58 1007.94 1008.22 1008.50 1008.78 1008.86 1009.02 1009.30 1009.62 1010.06 1010.50 1010.90 1011.30 1011.62 1012.10 1012.34 1012.62 1012.86 1012.86 1012.94 1013.02 1013.46 1013.74 1014.02 1014.22 1014.42 1014.74 1014.46 1014.34 1014.34 1014.30 1014.34 1014.34 1014.38 1014.38 1014.34 1014.42
1006.38 1006.70 1006.98 1007.10 1007.22 1007.38 1007.58 1007.90 1008.14 1008.46 1008.70 1008.82 1009.06 1009.50 1009.94 1010.38 1010.74 1011.18 1011.66 1011.82 1012.02 1012.18 1012.34 1012.50 1012.46 1012.66 1013.10 1013.34 1013.54 1013.74 1013.98 1014.50 1014.22 1014.06 1013.98 1013.98 1013.94 1013.94 1014.02 1014.02 1014.02 1013.98
1006.22 1006.54 1006.70 1006.90 1007.10 1007.18 1007.42 1007.82 1008.10 1008.54 1008.70 1008.86 1009.14 1009.58 1009.94 1010.38 1010.74 1010.78 1011.62 1011.70 1011.70 1011.86 1012.02 1012.22 1011.98 1012.30 1012.70 1012.94 1013.14 1013.46 1014.02 1014.26 1014.02 1014.02 1013.94 1013.78 1013.70 1013.66 1013.66 1013.62 1013.58 1013.62
1005.90 1006.22 1006.50 1006.70 1006.86 1007.06 1007.30 1007.54 1007.90 1008.34 1008.38 1008.54 1009.14 1009.42 1009.78 1010.22 1010.62 1010.82 1011.22 1011.30 1011.54 1011.70 1011.98 1012.10 1011.86 1011.94 1012.26 1012.50 1012.86 1013.38 1013.90 1013.70 1013.66 1013.62 1013.62 1013.62 1013.54 1013.42 1013.34 1013.26 1013.26 1013.26
1005.66 1005.94 1006.30 1006.54 1006.70 1006.90 1006.98 1007.10 1007.38 1007.74 1008.06 1008.14 1008.86 1009.46 1009.86 1010.06 1010.42 1010.90 1010.82 1010.94 1011.18 1011.50 1011.66 1011.86 1011.58 1011.46 1011.86 1012.26 1012.66 1013.18 1013.26 1013.30 1013.34 1013.42 1013.38 1013.38 1013.26 1013.14 1013.02 1013.06 1013.06 1013.26
1005.30 1005.62 1005.98 1006.26 1006.50 1006.54 1006.58 1006.90 1007.22 1007.66 1007.86 1008.02 1008.54 1009.02 1009.34 1009.66 1010.02 1010.54 1010.74 1010.70 1010.94 1011.26 1011.42 1011.50 1011.30 1011.22 1011.66 1011.98 1012.42 1012.86 1013.06 1013.02 1013.10 1013.10 1013.22 1013.14 1013.10 1013.02 1012.86 1012.86 1012.90 1013.02
1004.94 1005.34 1005.66 1005.94 1006.14 1006.30 1006.46 1006.78 1007.10 1007.42 1007.74 1008.10 1008.50 1008.70 1009.06 1009.42 1009.82 1010.22 1010.58 1010.46 1010.62 1011.06 1011.10 1011.14 1011.18 1011.14 1011.34 1011.86 1012.22 1012.58 1012.82 1012.74 1012.66 1012.90 1013.02 1012.86 1012.78 1012.70 1012.74 1012.70 1012.70 1012.70
Thickness
5803 5800 5797 5794 5791 5789 5786 5783 5780 5778 5775 5773 5771 5768 5767 5765 5764 5762 5758 5757 5754 5753 5752 5750 5748 5746 5745 5743 5741 5739 5737 5735 5734 5732 5731 5728 5726 5725 5723 5721 5719 5717
5803 5801 5797 5794 5791 5788 5787 5784 5781 5778 5774 5772 5771 5768 5766 5763 5761 5759 5756 5755 5753 5751 5750 5747 5746 5744 5742 5742 5740 5738 5736 5733 5732 5732 5730 5727 5725 5724 5721 5719 5718 5716
5803 5801 5797 5794 5791 5788 5787 5785 5781 5778 5775 5772 5769 5767 5764 5762 5760 5757 5755 5753 5750 5749 5747 5746 5744 5742 5740 5740 5739 5737 5735 5732 5731 5731 5728 5726 5725 5723 5721 5720 5717 5715
5803 5800 5797 5794 5792 5789 5787 5784 5780 5777 5775 5771 5769 5766 5764 5761 5759 5755 5753 5751 5748 5746 5746 5744 5742 5741 5739 5738 5737 5735 5734 5732 5730 5730 5727 5725 5724 5722 5721 5719 5716 5714
5803 5800 5798 5795 5793 5790 5786 5783 5779 5777 5774 5770 5768 5767 5763 5760 5757 5754 5752 5750 5747 5744 5743 5742 5740 5739 5737 5736 5734 5732 5731 5730 5729 5727 5724 5722 5722 5721 5720 5718 5715 5712
5803 5800 5798 5796 5793 5790 5786 5783 5780 5778 5776 5773 5770 5767 5764 5760 5757 5754 5752 5749 5747 5744 5742 5740 5738 5737 5735 5733 5731 5729 5728 5727 5727 5724 5721 5719 5720 5720 5719 5716 5713 5710
5803 5802 5800 5797 5794 5791 5787 5785 5783 5781 5778 5775 5771 5768 5765 5761 5756 5754 5752 5748 5747 5744 5740 5738 5736 5733 5732 5730 5727 5726 5725 5725 5723 5720 5717 5716 5716 5716 5715 5713 5710 5708
5808 5806 5803 5799 5795 5791 5788 5786 5783 5781 5778 5775 5771 5768 5766 5761 5757 5753 5750 5747 5744 5741 5738 5736 5734 5731 5729 5728 5725 5723 5723 5721 5721 5718 5715 5714 5713 5712 5712 5711 5709 5706
5813 5808 5802 5797 5794 5791 5788 5786 5782 5780 5777 5773 5770 5768 5765 5761 5757 5753 5749 5746 5742 5738 5736 5734 5731 5729 5727 5726 5723 5720 5719 5719 5718 5716 5714 5713 5711 5710 5710 5709 5706 5705
5812 5806 5799 5795 5793 5791 5788 5785 5781 5777 5773 5770 5767 5765 5761 5757 5755 5752 5747 5743 5739 5736 5734 5731 5729 5727 5725 5724 5723 5720 5717 5716 5716 5715 5713 5712 5710 5709 5708 5706 5704 5703
5808 5803 5798 5794 5795 5795 5792 5786 5780 5775 5771 5768 5765 5762 5758 5753 5751 5748 5745 5740 5736 5734 5731 5729 5727 5725 5723 5722 5720 5718 5716 5714 5714 5713 5711 5710 5709 5707 5706 5704 5703 5702
5807 5803 5799 5799 5800 5799 5796 5790 5784 5780 5777 5772 5768 5763 5759 5756 5751 5746 5742 5737 5734 5732 5729 5727 5725 5722 5721 5719 5717 5716 5715 5713 5712 5712 5710 5709 5707 5707 5705 5704 5702 5701
5805 5802 5803 5806 5806 5802 5798 5792 5787 5783 5780 5775 5770 5764 5759 5757 5753 5747 5741 5737 5733 5730 5727 5724 5722 5720 5718 5717 5715 5714 5713 5711 5711 5710 5709 5708 5706 5706 5705 5703 5702 5701
5805 5804 5807 5810 5807 5803 5799 5795 5789 5784 5780 5775 5770 5764 5760 5758 5755 5749 5743 5738 5732 5728 5725 5722 5719 5718 5716 5714 5712 5712 5711 5710 5708 5707 5706 5706 5704 5704 5703 5702 5701 5701
5807 5807 5807 5806 5804 5803 5800 5796 5791 5786 5781 5776 5770 5766 5762 5759 5755 5750 5743 5737 5732 5727 5723 5720 5718 5716 5715 5713 5711 5710 5709 5708 5707 5705 5704 5703 5702 5701 5701 5700 5700 5700
5808 5807 5804 5801 5801 5801 5799 5795 5790 5785 5780 5776 5772 5767 5762 5757 5752 5747 5741 5736 5731 5726 5721 5718 5717 5715 5713 5711 5710 5708 5706 5705 5704 5704 5703 5701 5699 5698 5697 5697 5698 5698
5807 5805 5801 5800 5799 5798 5796 5792 5788 5783 5779 5776 5772 5766 5760 5754 5748 5743 5739 5735 5730 5725 5720 5717 5716 5715 5712 5709 5707 5704 5702 5702 5702 5701 5701 5699 5697 5695 5693 5694 5694 5694
5807 5804 5800 5798 5797 5795 5793 5789 5784 5781 5776 5772 5769 5765 5758 5752 5746 5740 5736 5733 5729 5724 5720 5717 5715 5714 5710 5706 5704 5701 5698 5698 5700 5699 5699 5697 5695 5694 5692 5691 5690 5690
5807 5804 5798 5796 5796 5793 5789 5785 5781 5777 5773 5768 5766 5762 5756 5750 5745 5740 5735 5730 5726 5722 5718 5716 5715 5713 5708 5704 5702 5700 5697 5696 5697 5698 5696 5695 5694 5692 5690 5689 5687 5686
5806 5803 5797 5794 5795 5791 5787 5783 5779 5774 5771 5767 5763 5759 5753 5748 5742 5737 5732 5727 5724 5720 5716 5715 5715 5712 5708 5703 5701 5700 5696 5694 5695 5696 5695 5693 5691 5690 5689 5687 5685 5683
5804 5800 5796 5793 5791 5788 5785 5781 5776 5771 5768 5764 5759 5754 5747 5742 5738 5733 5728 5724 5722 5719 5716 5715 5714 5711 5707 5703 5702 5699 5695 5693 5693 5694 5692 5691 5690 5688 5686 5685 5683 5682
5801 5797 5793 5790 5787 5785 5781 5776 5771 5766 5763 5759 5754 5748 5743 5737 5733 5730 5724 5720 5720 5717 5714 5713 5713 5710 5706 5703 5701 5697 5693 5691 5691 5690 5689 5688 5686 5684 5684 5683 5681 5679
5798 5794 5789 5786 5783 5781 5777 5773 5768 5762 5760 5756 5749 5743 5739 5733 5729 5726 5722 5719 5717 5714 5711 5710 5710 5709 5705 5702 5699 5694 5691 5690 5689 5687 5686 5684 5683 5681 5681 5680 5679 5677
5795 5791 5786 5781 5780 5777 5773 5770 5766 5760 5757 5754 5747 5739 5736 5731 5726 5722 5720 5718 5714 5711 5709 5707 5708 5707 5704 5699 5696 5691 5689 5688 5686 5684 5682 5680 5679 5678 5678 5678 5676 5674
5793 5788 5782 5778 5775 5773 5770 5766 5762 5758 5754 5750 5745 5738 5734 5730 5726 5720 5717 5715 5712 5708 5706 5704 5705 5705 5701 5696 5693 5689 5686 5685 5683 5680 5679 5677 5676 5675 5675 5675 5673 5670
5789 5784 5779 5775 5771 5768 5765 5761 5757 5753 5749 5745 5740 5736 5732 5728 5723 5716 5713 5712 5709 5704 5702 5701 5701 5701 5697 5694 5690 5686 5682 5681 5679 5677 5676 5674 5673 5672 5671 5670 5668 5666